| time (UTC) | temp F | wind direction | speed knots | gust knots | rain 1hr in | rain 24hr in | rain mn in | humidity % | barometer mb |
| 20260503021624 | 50 | 107 | 0.9 | 3.5 | 0.00 | 0.00 | 0.77 | 100 | 1006.8 |
| 20260503021159 | 50 | 248 | 1.7 | 3.5 | 0.00 | 0.00 | 0.77 | 100 | 1006.8 |
| 20260503020304 | 50 | 244 | 0.9 | 3.5 | 0.00 | 0.00 | 0.77 | 100 | 1006.8 |
| 20260503015624 | 50 | 275 | 1.7 | 3.5 | 0.00 | 0.00 | 0.77 | 100 | 1006.8 |
| 20260503015156 | 50 | 267 | 1.7 | 3.5 | 0.00 | 0.00 | 0.77 | 100 | 1006.8 |
| 20260503014304 | 50 | 244 | 1.7 | 3.5 | 0.00 | 0.00 | 0.77 | 100 | 1006.8 |
| 20260503013624 | 50 | 277 | 0.9 | 2.6 | 0.00 | 0.00 | 0.77 | 100 | 1006.4 |
| 20260503012944 | 50 | 314 | 0.9 | 1.7 | 0.00 | 0.00 | 0.77 | 100 | 1006.4 |
| 20260503012305 | 50 | 241 | 0.9 | 2.6 | 0.00 | 0.00 | 0.77 | 100 | 1006.4 |
| 20260503011624 | 50 | 203 | 1.7 | 2.6 | 0.00 | 0.00 | 0.77 | 100 | 1006.1 |
| 20260503010944 | 51 | 203 | 0.9 | 1.7 | 0.00 | 0.00 | 0.77 | 100 | 1006.1 |
| 20260503010304 | 51 | 160 | 0.0 | 1.7 | 0.00 | 0.00 | 0.77 | 99 | 1006.1 |
| 20260503005624 | 51 | 22 | 0.0 | 1.7 | 0.00 | 0.00 | 0.77 | 99 | 1005.8 |
| 20260503005156 | 51 | 318 | 0.9 | 1.7 | 0.00 | 0.00 | 0.77 | 99 | 1005.8 |
| 20260503004304 | 51 | 327 | 0.9 | 1.7 | 0.00 | 0.00 | 0.77 | 100 | 1005.8 |
| 20260503003624 | 51 | 166 | 0.9 | 1.7 | 0.00 | 0.00 | 0.77 | 99 | 1005.4 |
| 20260503002944 | 51 | 157 | 0.9 | 1.7 | 0.00 | 0.00 | 0.77 | 99 | 1005.4 |
| 20260503002305 | 51 | 214 | 0.9 | 1.7 | 0.00 | 0.00 | 0.77 | 99 | 1005.4 |
| 20260503001624 | 51 | 43 | 0.9 | 0.9 | 0.00 | 0.00 | 0.77 | 97 | 1005.4 |
| 20260503001155 | 51 | 76 | 0.9 | 0.9 | 0.00 | 0.00 | 0.77 | 96 | 1005.4 |
| 20260503000516 | 52 | 329 | 0.9 | 1.7 | 0.00 | 0.00 | 0.77 | 97 | 1005.4 |
| 20260502235625 | 52 | 327 | 0.9 | 1.7 | 0.00 | 0.00 | 0.77 | 95 | 1005.1 |
| 20260502235157 | 52 | 327 | 0.9 | 1.7 | 0.00 | 0.00 | 0.77 | 92 | 1005.1 |
| 20260502234304 | 51 | 353 | 0.9 | 1.7 | 0.00 | 0.00 | 0.77 | 92 | 1005.1 |
| 20260502233624 | 51 | 43 | 0.9 | 1.7 | 0.00 | 0.00 | 0.77 | 91 | 1005.1 |
| 20260502232944 | 52 | 44 | 0.9 | 1.7 | 0.00 | 0.00 | 0.77 | 94 | 1005.1 |
| 20260502232305 | 52 | 352 | 0.9 | 1.7 | 0.00 | 0.00 | 0.77 | 91 | 1005.1 |
| 20260502231624 | 52 | 351 | 0.9 | 1.7 | 0.00 | 0.00 | 0.77 | 91 | 1005.1 |
| 20260502230944 | 52 | 352 | 0.9 | 2.6 | 0.00 | 0.00 | 0.77 | 89 | 1005.1 |
| 20260502230304 | 52 | 312 | 1.7 | 2.6 | 0.00 | 0.00 | 0.77 | 88 | 1005.1 |
| 20260502225624 | 52 | 29 | 0.9 | 2.6 | 0.00 | 0.00 | 0.77 | 89 | 1005.1 |
| 20260502224944 | 52 | 35 | 0.9 | 2.6 | 0.00 | 0.00 | 0.77 | 88 | 1005.1 |
| 20260502224304 | 52 | 338 | 0.9 | 3.5 | 0.00 | 0.00 | 0.77 | 85 | 1005.1 |
| 20260502223624 | 52 | 334 | 0.9 | 4.3 | 0.00 | 0.00 | 0.77 | 86 | 1005.1 |
| 20260502222944 | 52 | 9 | 1.7 | 5.2 | 0.00 | 0.00 | 0.77 | 86 | 1004.7 |
| 20260502222305 | 52 | 40 | 1.7 | 4.3 | 0.00 | 0.00 | 0.77 | 87 | 1004.7 |
| 20260502221624 | 52 | 23 | 2.6 | 4.3 | 0.00 | 0.00 | 0.77 | 88 | 1004.7 |
| 20260502220944 | 52 | 12 | 1.7 | 7.0 | 0.00 | 0.00 | 0.77 | 87 | 1004.7 |
| 20260502220517 | 52 | 32 | 3.5 | 7.0 | 0.00 | 0.00 | 0.77 | 86 | 1004.7 |
| 20260502215625 | 53 | 346 | 2.6 | 4.3 | 0.00 | 0.00 | 0.77 | 88 | 1004.4 |
| 20260502214944 | 53 | 12 | 0.9 | 3.5 | 0.00 | 0.00 | 0.77 | 90 | 1004.4 |
| 20260502214304 | 52 | 52 | 1.7 | 6.1 | 0.00 | 0.00 | 0.77 | 91 | 1004.4 |
| 20260502213624 | 53 | 24 | 2.6 | 5.2 | 0.00 | 0.00 | 0.77 | 89 | 1004.7 |
| 20260502212944 | 53 | 326 | 3.5 | 7.0 | 0.00 | 0.00 | 0.77 | 90 | 1004.7 |
| 20260502212305 | 53 | 332 | 3.5 | 7.0 | 0.00 | 0.00 | 0.77 | 89 | 1004.7 |
| 20260502211624 | 53 | 329 | 4.3 | 7.0 | 0.00 | 0.00 | 0.77 | 88 | 1004.7 |
| 20260502210944 | 53 | 328 | 4.3 | 7.8 | 0.00 | 0.00 | 0.77 | 89 | 1004.7 |
| 20260502210518 | 53 | 331 | 4.3 | 7.8 | 0.00 | 0.00 | 0.77 | 88 | 1004.7 |
| 20260502205833 | 53 | 308 | 4.3 | 7.8 | 0.00 | 0.00 | 0.77 | 86 | 1004.7 |
| 20260502204945 | 53 | 319 | 2.6 | 7.0 | 0.00 | 0.00 | 0.76 | 94 | 1004.4 |
| 20260502204304 | 53 | 335 | 4.3 | 7.0 | 0.00 | 0.00 | 0.76 | 91 | 1004.4 |
| 20260502203624 | 53 | 340 | 4.3 | 7.0 | 0.00 | 0.00 | 0.76 | 92 | 1004.7 |
| 20260502202944 | 53 | 326 | 4.3 | 8.7 | 0.00 | 0.00 | 0.76 | 92 | 1004.7 |
| 20260502202305 | 53 | 335 | 3.5 | 9.6 | 0.00 | 0.00 | 0.76 | 92 | 1004.7 |
| 20260502201624 | 53 | 332 | 5.2 | 9.6 | 0.00 | 0.00 | 0.76 | 90 | 1004.7 |
| 20260502200945 | 53 | 334 | 3.5 | 10.4 | 0.00 | 0.00 | 0.76 | 91 | 1004.7 |
| 20260502200305 | 53 | 327 | 7.0 | 10.4 | 0.00 | 0.00 | 0.76 | 88 | 1004.7 |
| 20260502195624 | 53 | 328 | 5.2 | 8.7 | 0.00 | 0.00 | 0.76 | 90 | 1004.7 |
| 20260502195154 | 53 | 5 | 3.5 | 8.7 | 0.00 | 0.00 | 0.76 | 90 | 1004.7 |
| 20260502194305 | 53 | 349 | 1.7 | 7.0 | 0.00 | 0.00 | 0.76 | 93 | 1004.7 |
| 20260502193836 | 52 | 2 | 3.5 | 9.6 | 0.00 | 0.00 | 0.76 | 93 | 1004.7 |
| 20260502192944 | 52 | 329 | 5.2 | 8.7 | 0.00 | 0.00 | 0.75 | 92 | 1005.1 |
| 20260502192305 | 52 | 324 | 4.3 | 7.0 | 0.00 | 0.00 | 0.75 | 93 | 1005.1 |
| 20260502191624 | 52 | 343 | 2.6 | 7.0 | 0.00 | 0.00 | 0.75 | 92 | 1005.4 |
| 20260502191153 | 52 | 323 | 3.5 | 8.7 | 0.00 | 0.00 | 0.74 | 92 | 1005.1 |
| 20260502190304 | 53 | 1 | 3.5 | 7.8 | 0.00 | 0.00 | 0.73 | 90 | 1005.1 |
| 20260502185624 | 52 | 26 | 2.6 | 10.4 | 0.00 | 0.00 | 0.73 | 92 | 1005.1 |
| 20260502185155 | 52 | 30 | 3.5 | 10.4 | 0.00 | 0.00 | 0.73 | 93 | 1005.4 |
| 20260502184516 | 52 | 40 | 4.3 | 11.3 | 0.00 | 0.00 | 0.72 | 90 | 1005.1 |
| 20260502183624 | 52 | 334 | 6.1 | 11.3 | 0.00 | 0.00 | 0.72 | 91 | 1005.1 |
| 20260502182944 | 52 | 3 | 3.5 | 8.7 | 0.00 | 0.00 | 0.70 | 93 | 1005.1 |
| 20260502182305 | 52 | 359 | 4.3 | 8.7 | 0.00 | 0.00 | 0.70 | 92 | 1005.4 |
| 20260502181833 | 52 | 31 | 3.5 | 10.4 | 0.00 | 0.00 | 0.70 | 93 | 1005.4 |
| 20260502180944 | 52 | 40 | 5.2 | 10.4 | 0.00 | 0.00 | 0.70 | 91 | 1005.1 |
| 20260502180304 | 52 | 34 | 4.3 | 8.7 | 0.00 | 0.00 | 0.69 | 90 | 1005.1 |
| 20260502170304 | 52 | 22 | 4.3 | 9.6 | 0.00 | 0.00 | 0.67 | 94 | 1005.4 |
| 20260502164304 | 51 | 17 | 3.5 | 9.6 | 0.00 | 0.00 | 0.65 | 93 | 1006.1 |
| 20260502163838 | 52 | 22 | 4.3 | 11.3 | 0.00 | 0.00 | 0.64 | 92 | 1006.1 |
| 20260502162944 | 52 | 38 | 1.7 | 10.4 | 0.00 | 0.00 | 0.63 | 93 | 1006.4 |
| 20260502162305 | 52 | 19 | 3.5 | 11.3 | 0.00 | 0.00 | 0.61 | 94 | 1006.4 |
| 20260502161624 | 52 | 359 | 5.2 | 8.7 | 0.00 | 0.00 | 0.59 | 92 | 1006.4 |
| 20260502160944 | 52 | 21 | 4.3 | 8.7 | 0.00 | 0.00 | 0.58 | 93 | 1006.8 |
| 20260502160304 | 52 | 22 | 3.5 | 8.7 | 0.00 | 0.00 | 0.57 | 92 | 1006.8 |
| 20260502152305 | 53 | 360 | 3.5 | 10.4 | 0.00 | 0.00 | 0.54 | 96 | 1005.8 |
| 20260502151835 | 52 | 351 | 4.3 | 10.4 | 0.00 | 0.00 | 0.53 | 96 | 1005.8 |
| 20260502150944 | 53 | 15 | 2.6 | 6.1 | 0.00 | 0.00 | 0.50 | 97 | 1006.1 |
| 20260502150516 | 53 | 9 | 2.6 | 7.0 | 0.00 | 0.00 | 0.48 | 98 | 1006.4 |
| 20260502130302 | 53 | 24 | 2.6 | 7.0 | 0.00 | 0.00 | 0.25 | 95 | 1005.1 |
| 20260502122942 | 53 | 347 | 3.5 | 7.8 | 0.00 | 0.00 | 0.22 | 93 | 1005.1 |
| 20260502122305 | 52 | 323 | 3.5 | 7.8 | 0.00 | 0.00 | 0.22 | 93 | 1005.1 |
| 20260502121832 | 52 | 334 | 3.5 | 7.8 | 0.00 | 0.00 | 0.21 | 93 | 1005.1 |
| 20260502120943 | 52 | 330 | 4.3 | 7.8 | 0.00 | 0.00 | 0.20 | 93 | 1004.7 |
| 20260502120303 | 52 | 342 | 2.6 | 7.0 | 0.00 | 0.00 | 0.20 | 92 | 1005.1 |
| 20260502115622 | 53 | 336 | 2.6 | 7.8 | 0.00 | 0.00 | 0.19 | 92 | 1005.1 |
| 20260502114943 | 53 | 341 | 2.6 | 8.7 | 0.00 | 0.00 | 0.18 | 91 | 1005.1 |
| 20260502114515 | 53 | 325 | 3.5 | 7.0 | 0.00 | 0.00 | 0.17 | 92 | 1005.1 |
| 20260502113623 | 53 | 325 | 4.3 | 7.8 | 0.00 | 0.00 | 0.15 | 91 | 1005.1 |
| 20260502112942 | 53 | 324 | 4.3 | 10.4 | 0.00 | 0.00 | 0.14 | 91 | 1005.1 |
| 20260502112305 | 53 | 325 | 3.5 | 9.6 | 0.00 | 0.00 | 0.14 | 91 | 1005.1 |
| 20260502111833 | 53 | 313 | 4.3 | 8.7 | 0.00 | 0.00 | 0.13 | 91 | 1005.1 |
| 20260502110943 | 53 | 307 | 5.2 | 8.7 | 0.00 | 0.00 | 0.12 | 90 | 1005.1 |
| 20260502110514 | 54 | 317 | 4.3 | 7.8 | 0.00 | 0.00 | 0.10 | 91 | 1005.1 |
| 20260502105834 | 54 | 309 | 4.3 | 10.4 | 0.00 | 0.00 | 0.08 | 91 | 1005.1 |
| 20260502105155 | 54 | 309 | 5.2 | 10.4 | 0.00 | 0.00 | 0.07 | 90 | 1005.1 |
| 20260502104302 | 54 | 293 | 5.2 | 8.7 | 0.00 | 0.00 | 0.04 | 89 | 1005.1 |
| 20260502103623 | 54 | 310 | 4.3 | 8.7 | 0.00 | 0.00 | 0.03 | 89 | 1005.1 |
| 20260502102942 | 54 | 309 | 3.5 | 6.1 | 0.00 | 0.00 | 0.01 | 88 | 1005.1 |
| 20260502102305 | 54 | 248 | 1.7 | 4.3 | 0.00 | 0.00 | 0.01 | 90 | 1005.1 |
| 20260502100942 | 53 | 302 | 2.6 | 4.3 | 0.00 | 0.00 | 0.00 | 92 | 1004.7 |
| 20260502100302 | 53 | 311 | 2.6 | 4.3 | 0.00 | 0.00 | 0.00 | 92 | 1004.7 |
| 20260502090942 | 54 | 313 | 1.7 | 4.3 | 0.00 | 0.00 | 0.00 | 90 | 1005.1 |
| 20260502090302 | 53 | 345 | 1.7 | 4.3 | 0.00 | 0.00 | 0.00 | 90 | 1004.7 |
| 20260502070943 | 53 | 330 | 2.6 | 3.5 | 0.00 | 0.00 | 0.00 | 92 | 1004.4 |
| 20260502070303 | 52 | 317 | 1.7 | 3.5 | 0.00 | 0.00 | 0.00 | 94 | 1004.4 |
| 20260502065623 | 52 | 313 | 3.5 | 3.5 | 0.00 | 0.00 | 0.00 | 94 | 1004.4 |
| 20260502064943 | 53 | 312 | 1.7 | 2.6 | 0.00 | 0.00 | 0.00 | 94 | 1004.4 |
| 20260502064303 | 53 | 295 | 1.7 | 2.6 | 0.00 | 0.00 | 0.00 | 94 | 1004.4 |
| 20260502063834 | 53 | 357 | 0.9 | 1.7 | 0.00 | 0.00 | 0.00 | 95 | 1004.4 |
| 20260502062943 | 53 | 4 | 0.9 | 1.7 | 0.00 | 0.00 | 0.00 | 94 | 1004.7 |
| 20260502062515 | 53 | 317 | 0.9 | 1.7 | 0.00 | 0.00 | 0.00 | 93 | 1004.7 |
| 20260502061624 | 53 | 76 | 0.0 | 1.7 | 0.00 | 0.00 | 0.00 | 95 | 1005.1 |
| 20260502060943 | 53 | 254 | 0.0 | 1.7 | 0.00 | 0.00 | 0.00 | 94 | 1005.1 |
| 20260502060303 | 53 | 335 | 0.9 | 1.7 | 0.00 | 0.00 | 0.00 | 93 | 1005.1 |
| 20260502055623 | 53 | 274 | 0.9 | 1.7 | 0.00 | 0.00 | 0.00 | 95 | 1005.1 |
| 20260502054943 | 52 | 306 | 0.9 | 1.7 | 0.00 | 0.00 | 0.00 | 95 | 1005.1 |
| 20260502054514 | 52 | 301 | 1.7 | 1.7 | 0.00 | 0.00 | 0.00 | 95 | 1005.1 |
| 20260502053623 | 52 | 312 | 0.9 | 1.7 | 0.00 | 0.00 | 0.00 | 96 | 1005.1 |
| 20260502052943 | 52 | 315 | 1.7 | 1.7 | 0.00 | 0.00 | 0.00 | 96 | 1005.1 |
| 20260502052306 | 52 | 306 | 1.7 | 2.6 | 0.00 | 0.00 | 0.00 | 96 | 1005.1 |
| 20260502051836 | 52 | 311 | 0.9 | 1.7 | 0.00 | 0.00 | 0.00 | 96 | 1005.4 |
| 20260502050943 | 52 | 309 | 0.9 | 1.7 | 0.00 | 0.00 | 0.00 | 95 | 1005.4 |
| 20260502050513 | 52 | 339 | 0.9 | 1.7 | 0.00 | 0.00 | 0.00 | 96 | 1005.4 |
| 20260502045623 | 52 | 307 | 0.9 | 1.7 | 0.00 | 0.00 | 0.00 | 96 | 1005.4 |
| 20260502044943 | 52 | 329 | 0.9 | 1.7 | 0.00 | 0.00 | 0.00 | 96 | 1005.4 |
| 20260502044303 | 52 | 323 | 1.7 | 1.7 | 0.00 | 0.00 | 0.00 | 96 | 1005.4 |
| 20260502043623 | 52 | 330 | 0.9 | 1.7 | 0.00 | 0.00 | 0.00 | 96 | 1005.8 |
| 20260502042944 | 52 | 329 | 0.9 | 1.7 | 0.00 | 0.00 | 0.00 | 96 | 1005.8 |
| 20260502042305 | 52 | 8 | 0.0 | 0.9 | 0.00 | 0.00 | 0.00 | 97 | 1005.8 |
| 20260502041624 | 52 | 120 | 0.0 | 1.7 | 0.00 | 0.00 | 0.00 | 97 | 1005.8 |
| 20260502040944 | 52 | 316 | 0.9 | 1.7 | 0.00 | 0.00 | 0.00 | 97 | 1005.8 |
| 20260502040513 | 52 | 329 | 0.9 | 0.9 | 0.00 | 0.00 | 0.00 | 97 | 1005.8 |
| 20260502035623 | 52 | 41 | 0.9 | 1.7 | 0.00 | 0.00 | 0.09 | 97 | 1005.4 |
| 20260502034943 | 52 | 350 | 0.9 | 2.6 | 0.00 | 0.00 | 0.09 | 97 | 1005.8 |
| 20260502034303 | 52 | 341 | 0.9 | 2.6 | 0.00 | 0.00 | 0.09 | 97 | 1005.8 |
| 20260502033623 | 51 | 328 | 0.9 | 1.7 | 0.00 | 0.00 | 0.09 | 97 | 1006.1 |
| 20260502032943 | 51 | 321 | 0.9 | 1.7 | 0.00 | 0.00 | 0.09 | 98 | 1006.1 |
| 20260502032305 | 51 | 315 | 0.9 | 0.9 | 0.00 | 0.00 | 0.09 | 99 | 1006.1 |
| 20260502031833 | 51 | 5 | 0.9 | 0.9 | 0.00 | 0.00 | 0.09 | 99 | 1006.1 |
| 20260502030943 | 51 | 345 | 0.9 | 1.7 | 0.00 | 0.00 | 0.09 | 99 | 1006.1 |
| 20260502030304 | 51 | 44 | 0.9 | 1.7 | 0.00 | 0.00 | 0.09 | 98 | 1006.1 |
| 20260502025834 | 51 | 67 | 0.9 | 1.7 | 0.00 | 0.00 | 0.09 | 98 | 1006.1 |
| 20260502025155 | 51 | 228 | 0.9 | 1.7 | 0.00 | 0.00 | 0.09 | 98 | 1006.4 |
| 20260502024303 | 51 | 147 | 0.9 | 1.7 | 0.00 | 0.00 | 0.09 | 98 | 1006.4 |
| 20260502023624 | 51 | 184 | 0.9 | 1.7 | 0.00 | 0.00 | 0.09 | 98 | 1006.4 |
| 20260502022944 | 51 | 219 | 0.9 | 1.7 | 0.00 | 0.00 | 0.09 | 98 | 1006.4 |
| 20260502022513 | 51 | 81 | 0.9 | 1.7 | 0.00 | 0.00 | 0.09 | 97 | 1006.1 |